Location: Claremont
(33.9858°S, 18.4575°E)
Time: 10:06:36
(UTC+00:00)

Lacrosse 5 rocket - Pass Details

Date: 03 March 2021
Orbit: 463 x 632 km, 57.0° (Epoch: 19 April)

Event Time Altitude Azimuth Distance (km) Brightness Sun altitude
Rises 18:39:04 0° 344° (NNW) 2,588 4.7 -16.7°
Reaches altitude 10° 18:41:26 10° 355° (N) 1,686 3.6 -17.2°
Enters shadow 18:42:31 17° 5° (N) 1,321 3.0 -17.4°
